Location: Lawrence
(38.9720°N, 95.2350°W)
Time: 04:06:19
(UTC-06:00)

JAS-1B - Visible Passes

Search period start: 23 February 2018 00:00
Search period end: 05 March 2018 00:00
Orbit: 911 x 1744 km, 99.1° (Epoch: 22 February)

Date Brightness Start Highest point End Pass type
(mag) Time Alt. Az. Time Alt. Az. Time Alt. Az.
23 Feb 10.2 00:38:48 10° NNW 00:38:48 10° NNW 00:38:52 10° NNW visible
23 Feb 9.8 21:13:34 12° NNE 21:13:34 12° NNE 21:14:43 10° NNE visible
23 Feb 9.7 23:05:49 20° N 23:05:49 20° N 23:07:47 10° N visible
24 Feb 9.7 21:32:50 15° NNE 21:32:50 15° NNE 21:34:33 10° NNE visible
24 Feb 9.8 23:25:05 19° NNW 23:25:05 19° NNW 23:26:51 10° NNW visible
25 Feb 9.6 21:52:06 17° NNE 21:52:06 17° NNE 21:54:08 10° N visible
25 Feb 9.9 23:44:21 17° NNW 23:44:21 17° NNW 23:45:51 10° NNW visible
26 Feb 9.6 22:11:21 19° NNE 22:11:21 19° NNE 22:13:33 10° N visible
27 Feb 10.0 00:03:36 15° NNW 00:03:36 15° NNW 00:04:44 10° NNW visible
27 Feb 9.5 22:30:37 21° N 22:30:37 21° N 22:32:52 10° N visible
28 Feb 10.1 00:22:51 13° NNW 00:22:51 13° NNW 00:23:30 10° NNW visible
28 Feb 9.7 20:57:37 11° NNE 20:57:37 11° NNE 20:58:00 10° NNE visible
28 Feb 9.6 22:49:52 21° N 22:49:52 21° N 22:52:04 10° N visible
01 Mar 9.6 21:16:52 13° NNE 21:16:52 13° NNE 21:18:17 10° NNE visible
01 Mar 9.6 23:09:08 21° N 23:09:08 21° N 23:11:12 10° N visible
02 Mar 9.5 21:36:07 16° NNE 21:36:07 16° NNE 21:38:04 10° NNE visible
02 Mar 9.7 23:28:23 19° NNW 23:28:23 19° NNW 23:30:14 10° NNW visible
03 Mar 9.5 21:55:22 19° NNE 21:55:22 19° NNE 21:57:36 10° N visible
03 Mar 9.8 23:47:38 17° NNW 23:47:38 17° NNW 23:49:10 10° NNW visible
04 Mar 9.4 22:14:38 21° NNE 22:14:38 21° NNE 22:16:59 10° N visible
